Location: Newark
(43.4306°N, 0.3089°E)
Time: 07:35:43
(UTC+00:00)

A-11 Canister half - Pass Details

Date: 27 August 2019
Orbit: 1514 x 1686 km, 47.2° (Epoch: 16 October)

Event Time Altitude Azimuth Distance (km) Brightness Sun altitude
Rises 22:20:04 0° 294° (WNW) 4,765 12.3 -32.0°
Reaches altitude 10° 22:23:08 10° 292° (WNW) 3,801 11.6 -32.3°
Maximum altitude 22:32:41 65° 214° (SSW) 1,766 9.0 -33.1°
Enters shadow 22:33:14 64° 197° (SSW) 1,779 9.0 -33.1°
